When you browse on this site, cookies collect data to enhance your experience and personalize the content and advertising you see.
Visit our Privacy Policy to learn more. By continuing to use the site, you agree to this use of cookies and data.
  • En España
  • Lista de países
  • Para 7 días
  • Temperatura del agua
  • El tiempo en el mapa
  • Informadores
  • user-avatar
    Iniciar sesión

    Tiempo cada hora Zabid

    Hoy, 21 Enero, Martes

    Tiempo Temperatura Precipitaciones Viento Presión Humedad
    00:00 +26°C° 0 mm 3 mps 753 mmHg 76%
    01:00 +26°C° 0 mm 2 mps 752 mmHg 78%
    02:00 +26°C° 0 mm 2 mps 752 mmHg 80%
    03:00 +26°C° 0 mm 2 mps 752 mmHg 82%
    04:00 +26°C° 0.2 mm 1 mps 752 mmHg 81%
    05:00 +26°C° 0.2 mm 1 mps 752 mmHg 80%
    06:00 +26°C° 0.2 mm 1 mps 752 mmHg 79%
    07:00 +26°C° 0.2 mm 1 mps 752 mmHg 77%
    08:00 +27°C° 0.2 mm 2 mps 753 mmHg 75%
    09:00 +27°C° 0.2 mm 2 mps 753 mmHg 73%
    10:00 +28°C° 0.3 mm 2 mps 753 mmHg 69%
    11:00 +29°C° 0.3 mm 3 mps 752 mmHg 66%
    12:00 +30°C° 0.3 mm 3 mps 752 mmHg 62%
    13:00 +30°C° 0.2 mm 3 mps 751 mmHg 62%
    14:00 +29°C° 0.2 mm 3 mps 751 mmHg 62%
    15:00 +29°C° 0.2 mm 3 mps 750 mmHg 62%
    16:00 +29°C° 0 mm 3 mps 750 mmHg 64%
    17:00 +29°C° 0 mm 3 mps 750 mmHg 65%
    18:00 +28°C° 0 mm 3 mps 751 mmHg 67%
    19:00 +28°C° 0 mm 3 mps 751 mmHg 69%
    20:00 +28°C° 0 mm 3 mps 752 mmHg 70%
    21:00 +27°C° 0 mm 3 mps 752 mmHg 72%
    22:00 +27°C° 0 mm 3 mps 752 mmHg 73%
    23:00 +27°C° 0 mm 3 mps 752 mmHg 74%

    Mañana, 22 Enero, Miércoles

    Tiempo Temperatura Precipitaciones Viento Presión Humedad
    00:00 +26°C° 0 mm 3 mps 751 mmHg 75%
    01:00 +26°C° 0.2 mm 3 mps 751 mmHg 76%
    02:00 +26°C° 0.2 mm 3 mps 751 mmHg 78%
    03:00 +26°C° 0.2 mm 3 mps 751 mmHg 79%
    04:00 +26°C° 0.1 mm 2 mps 751 mmHg 79%
    05:00 +26°C° 0.1 mm 2 mps 751 mmHg 79%
    06:00 +25°C° 0.1 mm 1 mps 751 mmHg 79%
    07:00 +26°C° 0.1 mm 1 mps 752 mmHg 76%
    08:00 +27°C° 0.1 mm 2 mps 752 mmHg 72%
    09:00 +27°C° 0.1 mm 3 mps 753 mmHg 69%
    10:00 +28°C° 0.1 mm 3 mps 752 mmHg 65%
    11:00 +29°C° 0.1 mm 3 mps 752 mmHg 60%
    12:00 +30°C° 0.1 mm 4 mps 751 mmHg 56%
    13:00 +30°C° 0.1 mm 4 mps 751 mmHg 55%
    14:00 +32°C° 0.1 mm 4 mps 750 mmHg 54%
    15:00 +32°C° 0.1 mm 5 mps 750 mmHg 53%
    16:00 +30°C° 0.1 mm 5 mps 750 mmHg 57%
    17:00 +29°C° 0.1 mm 5 mps 750 mmHg 61%
    18:00 +29°C° 0.1 mm 4 mps 750 mmHg 64%
    19:00 +28°C° 0.2 mm 4 mps 751 mmHg 67%
    20:00 +28°C° 0.2 mm 4 mps 751 mmHg 70%
    21:00 +27°C° 0.2 mm 3 mps 752 mmHg 73%
    22:00 +27°C° 0.2 mm 3 mps 751 mmHg 74%
    23:00 +27°C° 0.2 mm 3 mps 751 mmHg 76%

    Pasado mañana, 23 Enero, Jueves

    Tiempo Temperatura Precipitaciones Viento Presión Humedad
    00:00 +26°C° 0.2 mm 3 mps 751 mmHg 78%
    01:00 +26°C° 0.7 mm 3 mps 751 mmHg 78%
    02:00 +26°C° 0.7 mm 3 mps 751 mmHg 79%
    03:00 +26°C° 0.7 mm 3 mps 750 mmHg 79%
    04:00 +25°C° 1.1 mm 3 mps 751 mmHg 81%
    05:00 +25°C° 1.1 mm 3 mps 751 mmHg 82%
    06:00 +25°C° 1.1 mm 3 mps 751 mmHg 83%
    07:00 +25°C° 1.2 mm 3 mps 752 mmHg 84%
    08:00 +25°C° 1.2 mm 3 mps 752 mmHg 85%
    09:00 +24°C° 1.2 mm 3 mps 753 mmHg 86%
    10:00 +24°C° 1.5 mm 3 mps 752 mmHg 87%
    11:00 +24°C° 1.5 mm 2 mps 752 mmHg 87%
    12:00 +24°C° 1.5 mm 2 mps 752 mmHg 88%
    13:00 +24°C° 0.8 mm 2 mps 752 mmHg 87%
    14:00 +24°C° 0.8 mm 2 mps 751 mmHg 87%
    15:00 +24°C° 0.8 mm 2 mps 751 mmHg 86%
    16:00 +25°C° 0.4 mm 2 mps 751 mmHg 84%
    17:00 +25°C° 0.4 mm 2 mps 752 mmHg 83%
    18:00 +25°C° 0.4 mm 1 mps 752 mmHg 81%
    19:00 +25°C° 0.1 mm 2 mps 752 mmHg 82%
    20:00 +25°C° 0.1 mm 3 mps 753 mmHg 84%
    21:00 +25°C° 0.1 mm 3 mps 753 mmHg 85%
    22:00 +25°C° 0 mm 3 mps 753 mmHg 84%
    23:00 +25°C° 0 mm 3 mps 753 mmHg 83%

    24 Enero, Viernes

    Tiempo Temperatura Precipitaciones Viento Presión Humedad
    00:00 +25°C° 0 mm 3 mps 753 mmHg 81%
    01:00 +25°C° 0 mm 4 mps 753 mmHg 79%
    02:00 +25°C° 0 mm 4 mps 752 mmHg 76%
    03:00 +25°C° 0 mm 5 mps 752 mmHg 74%
    04:00 +25°C° 0 mm 4 mps 752 mmHg 74%
    05:00 +25°C° 0 mm 4 mps 753 mmHg 73%
    06:00 +25°C° 0 mm 3 mps 753 mmHg 72%
    07:00 +25°C° 0 mm 4 mps 753 mmHg 71%
    08:00 +26°C° 0 mm 4 mps 754 mmHg 69%
    09:00 +26°C° 0 mm 4 mps 754 mmHg 67%
    10:00 +27°C° 0 mm 4 mps 754 mmHg 63%
    11:00 +28°C° 0 mm 4 mps 753 mmHg 58%
    12:00 +30°C° 0 mm 5 mps 753 mmHg 54%
    13:00 +30°C° 0 mm 5 mps 752 mmHg 54%
    14:00 +30°C° 0 mm 6 mps 752 mmHg 54%
    15:00 +30°C° 0 mm 7 mps 752 mmHg 54%
    16:00 +29°C° 0 mm 7 mps 752 mmHg 58%
    17:00 +28°C° 0 mm 7 mps 752 mmHg 63%
    18:00 +27°C° 0 mm 7 mps 752 mmHg 67%
    19:00 +27°C° 0 mm 6 mps 753 mmHg 68%
    20:00 +27°C° 0 mm 6 mps 753 mmHg 69%
    21:00 +26°C° 0 mm 5 mps 754 mmHg 70%
    22:00 +26°C° 0 mm 5 mps 754 mmHg 70%
    23:00 +26°C° 0 mm 5 mps 754 mmHg 71%

    25 Enero, Sábado

    Tiempo Temperatura Precipitaciones Viento Presión Humedad
    00:00 +26°C° 0 mm 5 mps 754 mmHg 71%
    01:00 +25°C° 0 mm 5 mps 754 mmHg 72%
    02:00 +25°C° 0 mm 5 mps 754 mmHg 72%
    03:00 +25°C° 0 mm 5 mps 753 mmHg 73%
    04:00 +25°C° 0 mm 5 mps 754 mmHg 73%
    05:00 +25°C° 0 mm 4 mps 754 mmHg 73%
    06:00 +25°C° 0 mm 4 mps 754 mmHg 73%
    07:00 +25°C° 0 mm 4 mps 755 mmHg 70%
    08:00 +26°C° 0 mm 4 mps 755 mmHg 67%
    09:00 +27°C° 0 mm 4 mps 755 mmHg 63%
    10:00 +27°C° 0 mm 4 mps 755 mmHg 61%
    11:00 +28°C° 0 mm 5 mps 754 mmHg 58%
    12:00 +29°C° 0 mm 5 mps 754 mmHg 56%
    13:00 +29°C° 0 mm 5 mps 753 mmHg 57%
    14:00 +29°C° 0 mm 6 mps 753 mmHg 59%
    15:00 +29°C° 0 mm 7 mps 753 mmHg 60%
    16:00 +29°C° 0 mm 6 mps 753 mmHg 62%
    17:00 +28°C° 0 mm 6 mps 753 mmHg 63%
    18:00 +28°C° 0 mm 6 mps 753 mmHg 64%
    19:00 +27°C° 0 mm 6 mps 753 mmHg 66%
    20:00 +27°C° 0 mm 5 mps 754 mmHg 68%
    21:00 +26°C° 0 mm 5 mps 754 mmHg 69%
    22:00 +26°C° 0 mm 5 mps 754 mmHg 71%
    23:00 +26°C° 0 mm 5 mps 754 mmHg 72%

    26 Enero, Domingo

    Tiempo Temperatura Precipitaciones Viento Presión Humedad
    00:00 +26°C° 0 mm 4 mps 754 mmHg 74%
    01:00 +25°C° 0 mm 4 mps 754 mmHg 73%
    02:00 +25°C° 0 mm 4 mps 753 mmHg 73%
    03:00 +25°C° 0 mm 4 mps 753 mmHg 73%
    04:00 +25°C° 0 mm 3 mps 754 mmHg 72%
    05:00 +25°C° 0 mm 3 mps 754 mmHg 72%
    06:00 +25°C° 0 mm 3 mps 754 mmHg 72%
    07:00 +26°C° 0.1 mm 2 mps 755 mmHg 69%
    08:00 +26°C° 0.1 mm 2 mps 755 mmHg 67%
    09:00 +26°C° 0.1 mm 2 mps 755 mmHg 65%
    10:00 +27°C° 0 mm 2 mps 755 mmHg 62%
    11:00 +28°C° 0 mm 3 mps 754 mmHg 59%
    12:00 +29°C° 0 mm 3 mps 754 mmHg 56%
    13:00 +30°C° 0 mm 4 mps 753 mmHg 56%
    14:00 +30°C° 0 mm 4 mps 753 mmHg 57%
    15:00 +30°C° 0 mm 5 mps 752 mmHg 58%
    16:00 +29°C° 0 mm 5 mps 752 mmHg 61%
    17:00 +28°C° 0 mm 4 mps 752 mmHg 65%
    18:00 +28°C° 0 mm 4 mps 752 mmHg 68%
    19:00 +27°C° 0 mm 4 mps 753 mmHg 70%
    20:00 +27°C° 0 mm 3 mps 753 mmHg 71%
    21:00 +27°C° 0 mm 3 mps 754 mmHg 72%
    22:00 +27°C° 0 mm 3 mps 754 mmHg 73%
    23:00 +26°C° 0 mm 3 mps 754 mmHg 73%
    Mostrar más